GW2423 Weather Reports


time (UTC)temp
C
wind
direction
speed
KPH
gust
KPH
rain 1hr
cm
rain 24hr
cm
rain mn
cm
humidity
%
barometer
mb
20260506002218 26 19 3.2 6.4 0.48 0.08 0.08 78 1004.1
20260506001714 27 24 8.0 14.5 0.13 0.03 0.03 73 1004.1
20260506001212 27 358 9.7 16.1 0.00 0.00 0.00 70 1003.7
20260506000708 28 0 11.3 17.7 0.00 0.00 0.00 68 1003.4
20260506000206 28 7 17.7 27.4 0.00 0.00 0.00 68 1003.5
20260505235703 28 337 12.9 17.7 0.00 0.00 0.00 68 1003.1
20260505235201 28 12 22.5 27.4 0.00 0.00 0.00 68 1002.9
20260505234657 28 353 22.5 24.1 0.00 0.00 0.00 66 1003.2
20260505234154 28 358 9.7 25.7 0.00 0.00 0.00 66 1003.5
20260505233651 29 33 6.4 17.7 0.00 0.00 0.00 66 1003.3
20260505233149 29 354 3.2 19.3 0.00 0.00 0.00 65 1003.2
20260505232646 29 6 6.4 16.1 0.00 0.00 0.00 64 1003.1
20260505232144 30 346 14.5 19.3 0.00 0.00 0.00 64 1003.1
20260505231640 30 353 12.9 19.3 0.00 0.00 0.00 62 1003.1
20260505231139 30 329 8.0 14.5 0.00 0.00 0.00 62 1003.3
20260505230637 30 339 14.5 17.7 0.00 0.00 0.00 61 1003.0
20260505230133 30 7 11.3 19.3 0.00 0.00 0.00 61 1003.0
20260505225629 30 5 14.5 24.1 0.00 0.00 0.00 62 1003.0
20260505225125 30 351 14.5 22.5 0.00 0.00 0.00 61 1003.1
20260505224622 30 11 11.3 16.1 0.00 0.00 0.00 61 1003.0
20260505224120 30 2 6.4 24.1 0.00 0.00 0.00 62 1002.8
20260505223617 30 351 12.9 22.5 0.00 0.00 0.00 62 1002.9
20260505223113 30 338 20.9 22.5 0.00 0.00 0.00 62 1002.8
20260505222609 30 7 17.7 24.1 0.00 0.00 0.00 62 1002.8
20260505222106 30 14 4.8 24.1 0.00 0.00 0.00 62 1003.2
20260505221603 30 359 12.9 22.5 0.00 0.00 0.00 61 1003.0
20260505221059 30 347 14.5 17.7 0.00 0.00 0.00 61 1002.8
20260505220556 30 19 11.3 20.9 0.00 0.00 0.00 61 1002.8
20260505220054 31 347 9.7 20.9 0.00 0.00 0.00 59 1002.7
20260505215552 31 5 14.5 20.9 0.00 0.00 0.00 61 1002.8
20260505215050 31 4 8.0 20.9 0.00 0.00 0.00 60 1002.8
20260505214548 31 22 9.7 17.7 0.00 0.00 0.00 59 1002.9
20260505214044 31 25 11.3 20.9 0.00 0.00 0.00 59 1002.9
20260505213542 31 4 4.8 12.9 0.00 0.00 0.00 59 1002.9
20260505213038 30 23 14.5 17.7 0.00 0.00 0.00 60 1003.0
20260505212535 30 18 6.4 17.7 0.00 0.00 0.00 61 1003.3
20260505212032 30 17 9.7 20.9 0.00 0.00 0.00 62 1003.0
20260505211529 30 357 12.9 17.7 0.00 0.00 0.00 61 1003.1
20260505211025 30 6 16.1 20.9 0.00 0.00 0.00 62 1003.0
20260505210522 30 26 16.1 20.9 0.00 0.00 0.00 61 1003.0
20260505210019 30 29 14.5 20.9 0.00 0.00 0.00 62 1003.2
20260505205517 29 29 9.7 20.9 0.00 0.00 0.00 63 1003.2
20260505205014 29 13 19.3 25.7 0.00 0.00 0.00 62 1003.6
20260505204512 29 357 11.3 25.7 0.00 0.00 0.00 63 1003.5
20260505204009 29 29 9.7 22.5 0.00 0.00 0.00 63 1003.4
20260505203505 29 1 12.9 25.7 0.00 0.00 0.00 64 1003.6
20260505203002 29 22 16.1 17.7 0.00 0.00 0.00 64 1003.7
20260505202458 29 4 12.9 20.9 0.00 0.00 0.00 64 1003.8
20260505201954 29 13 14.5 20.9 0.00 0.00 0.00 64 1003.8
20260505201451 29 30 6.4 19.3 0.00 0.00 0.00 64 1003.7
20260505200949 28 18 14.5 19.3 0.00 0.00 0.00 64 1003.8
20260505200447 28 9 12.9 24.1 0.00 0.00 0.00 65 1003.9
20260505195942 28 11 14.5 19.3 0.00 0.00 0.00 65 1004.0
20260505195440 28 354 9.7 19.3 0.00 0.00 0.00 65 1003.8
20260505194937 28 19 12.9 25.7 0.00 0.00 0.00 66 1003.8
20260505194434 28 16 20.9 20.9 0.00 0.00 0.00 66 1004.2
20260505193934 28 5 19.3 27.4 0.00 0.00 0.00 66 1003.7
20260505193432 28 37 9.7 20.9 0.00 0.00 0.00 67 1003.8
20260505192930 28 3 19.3 32.2 0.00 0.00 0.00 67 1004.1
20260505192428 27 6 14.5 22.5 0.00 0.00 0.00 67 1003.7
20260505191925 27 4 17.7 30.6 0.00 0.00 0.00 67 1003.9
20260505191424 27 21 22.5 27.4 0.00 0.00 0.00 67 1003.8
20260505190920 27 23 16.1 29.0 0.00 0.00 0.00 68 1004.0
20260505190415 27 31 17.7 27.4 0.00 0.00 0.00 69 1004.0
20260505185911 27 8 19.3 20.9 0.00 0.00 0.00 69 1004.2
20260505185408 27 6 17.7 27.4 0.00 0.00 0.00 68 1004.4
20260505184904 27 17 16.1 22.5 0.00 0.00 0.00 69 1004.1
20260505184401 27 25 9.7 25.7 0.00 0.00 0.00 69 1004.5
20260505183858 27 30 14.5 25.7 0.00 0.00 0.00 69 1004.3
20260505183355 27 13 16.1 24.1 0.00 0.00 0.00 70 1004.4
20260505182852 27 17 14.5 25.7 0.00 0.00 0.00 68 1004.2
20260505182348 27 43 12.9 24.1 0.00 0.00 0.00 68 1004.3
20260505181845 26 24 19.3 25.7 0.00 0.00 0.00 70 1004.5
20260505181343 26 23 20.9 27.4 0.00 0.00 0.00 70 1004.3
20260505180839 27 14 25.7 25.7 0.00 0.00 0.00 69 1004.3
20260505180335 27 9 17.7 24.1 0.00 0.00 0.00 68 1004.3
20260505175832 27 14 17.7 22.5 0.00 0.00 0.00 69 1004.3
20260505175329 27 6 19.3 27.4 0.00 0.00 0.00 69 1004.6
20260505174825 26 22 14.5 29.0 0.00 0.00 0.00 70 1004.6
20260505174323 26 3 14.5 25.7 0.00 0.00 0.00 70 1004.6
20260505173818 26 6 17.7 27.4 0.00 0.00 0.00 70 1004.5
20260505173316 26 0 19.3 25.7 0.00 0.00 0.00 70 1004.5
20260505172813 26 28 14.5 25.7 0.00 0.00 0.00 70 1004.4
20260505172310 26 21 22.5 30.6 0.00 0.00 0.00 72 1004.4
20260505171804 25 13 14.5 24.1 0.00 0.00 0.00 73 1004.4
20260505171301 26 31 9.7 30.6 0.00 0.00 0.00 72 1004.8
20260505170758 26 353 17.7 29.0 0.00 0.00 0.00 72 1004.5
20260505170255 25 11 24.1 27.4 0.00 0.00 0.00 73 1004.9
20260505165755 25 16 16.1 27.4 0.00 0.00 0.00 73 1004.6
20260505165252 25 6 29.0 35.4 0.00 0.00 0.00 72 1004.6
20260505164748 25 17 27.4 29.0 0.00 0.00 0.00 73 1004.6
20260505164245 25 22 17.7 30.6 0.00 0.00 0.00 72 1004.6
20260505163743 25 0 25.7 37.0 0.00 0.00 0.00 72 1004.7
20260505163242 25 30 16.1 35.4 0.00 0.00 0.00 72 1004.5
20260505162739 25 12 19.3 27.4 0.00 0.00 0.00 73 1004.5
20260505162235 25 39 12.9 30.6 0.00 0.00 0.00 74 1004.5
20260505161732 25 30 12.9 27.4 0.00 0.00 0.00 73 1004.3
20260505161230 25 7 16.1 35.4 0.00 0.00 0.00 73 1004.2
20260505160727 25 36 17.7 35.4 0.00 0.00 0.00 74 1004.1
20260505160225 24 20 17.7 32.2 0.00 0.00 0.00 75 1004.2
20260505153204 24 32 14.5 30.6 0.00 0.00 0.00 76 1004.6
20260505152700 23 7 9.7 29.0 0.00 0.00 0.00 77 1004.5
20260505152156 23 28 33.8 37.0 0.00 0.00 0.00 77 1004.2
20260505151652 23 35 25.7 32.2 0.00 0.00 0.00 78 1004.4
20260505151149 23 9 25.7 30.6 0.00 0.00 0.00 78 1004.4
20260505150645 23 13 14.5 37.0 0.00 0.00 0.00 77 1004.6
20260505150143 23 20 12.9 27.4 0.00 0.00 0.00 78 1004.3
20260505140616 23 39 16.1 37.0 0.00 0.00 0.00 79 1004.1
20260505140113 22 9 14.5 27.4 0.00 0.00 0.00 80 1004.2
20260505125030 22 8 20.9 32.2 0.00 0.00 0.00 81 1004.2
20260505124526 22 17 17.7 32.2 0.00 0.00 0.00 81 1003.7
20260505124023 22 2 16.1 33.8 0.00 0.00 0.00 81 1003.8
20260505123519 22 5 8.0 20.9 0.00 0.00 0.00 81 1003.8
20260505123015 22 5 12.9 22.5 0.00 0.00 0.00 81 1003.6
20260505122513 22 39 19.3 30.6 0.00 0.00 0.00 81 1003.5
20260505122009 22 7 14.5 27.4 0.00 0.00 0.00 81 1003.7
20260505121506 22 20 19.3 35.4 0.00 0.00 0.00 81 1003.8
20260505121002 22 357 17.7 32.2 0.00 0.00 0.00 81 1003.4
20260505120459 22 351 12.9 20.9 0.00 0.00 0.00 81 1003.6
20260505115958 22 10 14.5 33.8 0.00 0.00 0.00 81 1003.6
20260505115454 22 355 14.5 22.5 0.00 0.00 0.00 81 1003.4
20260505114953 22 344 30.6 33.8 0.00 0.00 0.00 81 1003.4
20260505114448 22 13 22.5 24.1 0.00 0.00 0.00 81 1003.5
20260505113945 22 19 9.7 20.9 0.00 0.00 0.00 81 1003.4
20260505113441 22 348 16.1 27.4 0.00 0.00 0.00 81 1003.2
20260505112937 22 13 12.9 27.4 0.00 0.00 0.00 81 1003.3
20260505112435 22 9 12.9 25.7 0.00 0.00 0.00 81 1003.5
20260505111931 22 336 20.9 24.1 0.00 0.00 0.00 81 1003.6
20260505111426 22 352 9.7 19.3 0.00 0.00 0.00 81 1003.4
20260505110922 22 4 11.3 22.5 0.00 0.00 0.00 81 1003.5
20260505110419 22 37 20.9 22.5 0.00 0.00 0.00 81 1003.4
20260505101850 22 358 22.5 30.6 0.00 0.00 0.00 81 1003.6
20260505101345 22 1 9.7 27.4 0.00 0.00 0.00 81 1003.6
20260505100841 22 350 16.1 22.5 0.00 0.00 0.00 81 1003.6
20260505100338 22 20 24.1 29.0 0.00 0.00 0.00 81 1003.7
20260505095833 22 2 17.7 24.1 0.00 0.00 0.00 81 1003.7
20260505095332 22 356 16.1 22.5 0.00 0.00 0.00 81 1003.9
20260505094827 22 358 17.7 30.6 0.00 0.00 0.00 81 1003.8
20260505094324 22 356 20.9 27.4 0.00 0.00 0.00 81 1003.9
20260505093819 22 10 16.1 20.9 0.00 0.00 0.00 81 1003.8
20260505093318 22 1 19.3 27.4 0.00 0.00 0.00 81 1004.0
20260505092814 22 337 11.3 32.2 0.00 0.00 0.00 81 1003.9
20260505092313 22 1 16.1 19.3 0.00 0.00 0.00 81 1003.9
20260505091810 22 26 20.9 35.4 0.00 0.00 0.00 81 1004.0
20260505091308 22 3 19.3 29.0 0.00 0.00 0.00 81 1003.8
20260505090805 22 31 14.5 30.6 0.00 0.00 0.00 81 1003.9
20260505090303 22 16 16.1 25.7 0.00 0.00 0.00 81 1003.7
20260505085800 22 29 20.9 20.9 0.00 0.00 0.00 81 1003.8
20260505085258 22 356 12.9 25.7 0.00 0.00 0.00 81 1003.7
20260505084756 22 353 17.7 29.0 0.00 0.00 0.00 81 1003.8
20260505084255 22 2 12.9 25.7 0.00 0.00 0.00 81 1003.8
20260505083751 21 25 20.9 27.4 0.00 0.00 0.00 81 1003.8
20260505083248 21 348 14.5 27.4 0.00 0.00 0.00 81 1003.8
20260505082744 21 52 11.3 25.7 0.00 0.00 0.00 81 1003.9
20260505082241 21 350 19.3 33.8 0.00 0.00 0.00 81 1004.0
20260505081737 21 3 12.9 27.4 0.00 0.00 0.00 81 1003.8
20260505081235 21 358 17.7 27.4 0.00 0.00 0.00 81 1003.9
20260505080731 21 2 16.1 33.8 0.00 0.00 0.00 81 1003.9
20260505080227 21 3 16.1 19.3 0.00 0.00 0.00 81 1004.0
20260505075723 21 13 12.9 27.4 0.00 0.00 0.00 81 1004.1
20260505075220 21 13 16.1 24.1 0.00 0.00 0.00 81 1004.3
20260505074717 21 356 12.9 25.7 0.00 0.00 0.00 81 1004.3
20260505074214 21 7 19.3 33.8 0.00 0.00 0.00 80 1004.4
20260505073712 21 25 20.9 32.2 0.00 0.00 0.00 80 1004.5
20260505073210 22 1 9.7 24.1 0.00 0.00 0.00 80 1004.5
20260505072705 22 6 19.3 30.6 0.00 0.00 0.00 80 1004.4
20260505072202 22 0 14.5 24.1 0.00 0.00 0.00 80 1004.6
20260505071657 22 0 16.1 33.8 0.00 0.00 0.00 79 1004.6
20260505071155 22 26 11.3 25.7 0.00 0.00 0.00 79 1004.6
20260505070653 22 344 16.1 25.7 0.00 0.00 0.00 79 1004.8
20260505070148 22 31 9.7 24.1 0.00 0.00 0.00 79 1004.8
20260505065645 22 356 12.9 27.4 0.00 0.00 0.00 79 1004.7
20260505065142 22 355 17.7 27.4 0.00 0.00 0.00 78 1004.9
20260505064638 22 342 14.5 32.2 0.00 0.00 0.00 78 1004.8
20260505064136 22 14 9.7 25.7 0.00 0.00 0.00 78 1004.9
20260505063634 22 14 14.5 35.4 0.00 0.00 0.00 78 1004.9
20260505063130 22 11 20.9 24.1 0.00 0.00 0.00 77 1004.8
20260505062626 22 339 24.1 32.2 0.00 0.00 0.00 77 1005.2
20260505062124 22 351 22.5 37.0 0.00 0.00 0.00 77 1005.0
20260505061621 22 352 12.9 25.7 0.00 0.00 0.00 77 1005.1
20260505061119 22 356 16.1 24.1 0.00 0.00 0.00 76 1005.2
20260505060616 22 0 19.3 27.4 0.00 0.00 0.00 76 1005.2
20260505060113 22 346 19.3 29.0 0.00 0.00 0.00 76 1005.3
20260505055608 22 332 14.5 27.4 0.00 0.00 0.00 75 1005.1
20260505055105 22 9 17.7 29.0 0.00 0.00 0.00 75 1005.1
20260505054602 22 346 22.5 29.0 0.00 0.00 0.00 75 1005.2
20260505054100 22 343 14.5 33.8 0.00 0.00 0.00 75 1005.4
20260505053557 22 16 27.4 27.4 0.00 0.00 0.00 75 1005.3
20260505053053 22 343 12.9 27.4 0.00 0.00 0.00 74 1005.3
20260505052550 22 354 9.7 22.5 0.00 0.00 0.00 74 1005.4
20260505052048 22 356 20.9 30.6 0.00 0.00 0.00 74 1005.6
20260505051545 22 28 24.1 32.2 0.00 0.00 0.00 73 1005.6
20260505051043 22 19 20.9 27.4 0.00 0.00 0.00 73 1005.5
20260505050541 22 351 11.3 30.6 0.00 0.00 0.00 73 1005.6
20260505041508 23 338 20.9 22.5 0.00 0.00 0.00 69 1005.7
20260505041006 23 356 9.7 19.3 0.00 0.00 0.00 69 1005.7
20260505040503 23 341 19.3 27.4 0.00 0.00 0.00 69 1005.8
20260505040000 23 334 12.9 20.9 0.00 0.00 0.00 69 1005.6
20260505035455 23 344 11.3 25.7 0.00 0.00 0.00 68 1005.8
20260505034953 23 346 14.5 25.7 0.00 0.00 0.00 68 1005.7
20260505034449 23 343 11.3 24.1 0.00 0.00 0.00 68 1005.5
20260505033947 23 346 17.7 25.7 0.00 0.00 0.00 68 1005.6
20260505033443 23 331 9.7 29.0 0.00 0.00 0.00 67 1005.6
20260505032941 23 14 22.5 27.4 0.00 0.00 0.00 67 1005.6
20260505032439 23 2 16.1 20.9 0.00 0.00 0.00 67 1005.7
20260505031935 23 29 19.3 29.0 0.00 0.00 0.00 67 1005.5
20260505031432 23 351 11.3 24.1 0.00 0.00 0.00 67 1005.8
20260505030929 23 9 12.9 22.5 0.00 0.00 0.00 67 1005.5
20260505030424 23 333 4.8 16.1 0.00 0.00 0.00 66 1005.7
20260505025920 23 336 16.1 24.1 0.00 0.00 0.00 66 1005.8
20260505025418 23 358 14.5 24.1 0.00 0.00 0.00 66 1005.7
20260505024917 23 4 11.3 30.6 0.00 0.00 0.00 66 1005.6
20260505024414 23 348 14.5 19.3 0.00 0.00 0.00 66 1005.6
20260505023910 23 348 16.1 20.9 0.00 0.00 0.00 66 1005.5
20260505023408 23 338 11.3 25.7 0.00 0.00 0.00 65 1005.4
20260505022905 23 345 9.7 16.1 0.00 0.00 0.00 65 1005.3
20260505022402 24 13 12.9 19.3 0.00 0.00 0.00 65 1005.8
20260505021859 24 351 9.7 25.7 0.00 0.00 0.00 64 1005.6
20260505021355 24 13 6.4 25.7 0.00 0.00 0.00 64 1005.5
20260505020851 24 343 17.7 17.7 0.00 0.00 0.00 64 1005.5
20260505020347 24 7 8.0 24.1 0.00 0.00 0.00 64 1005.5
20260505015844 24 353 12.9 22.5 0.00 0.00 0.00 63 1005.4
20260505015341 24 335 19.3 29.0 0.00 0.00 0.00 63 1005.5
20260505014838 24 52 14.5 24.1 0.00 0.00 0.00 63 1005.5
20260505014335 24 326 8.0 19.3 0.00 0.00 0.00 63 1005.5
20260505013832 24 9 6.4 19.3 0.00 0.00 0.00 63 1005.4
20260505013329 25 4 6.4 20.9 0.00 0.00 0.00 62 1005.6
20260505012828 25 40 17.7 29.0 0.00 0.00 0.00 62 1005.5
20260505012325 25 5 11.3 24.1 0.00 0.00 0.00 62 1005.5
20260505011820 25 4 16.1 20.9 0.00 0.00 0.00 62 1005.5
20260505011318 25 348 22.5 27.4 0.00 0.00 0.00 62 1005.4
20260505010814 25 357 27.4 29.0 0.00 0.00 0.00 61 1005.4
20260505010310 25 5 9.7 24.1 0.00 0.00 0.00 61 1005.3
20260505005806 25 6 16.1 27.4 0.00 0.00 0.00 61 1005.5
20260505005304 25 4 9.7 20.9 0.00 0.00 0.00 61 1005.6
20260505004801 25 341 16.1 24.1 0.00 0.00 0.00 60 1005.4
20260505004256 25 4 11.3 27.4 0.00 0.00 0.00 60 1005.6
20260505003754 25 21 14.5 29.0 0.00 0.00 0.00 59 1005.4
20260505003251 25 24 27.4 29.0 0.00 0.00 0.00 59 1005.5
20260505002748 25 4 19.3 29.0 0.00 0.00 0.00 58 1005.5